Regional Weather Roundup
Issued by NWS

Home | Current Version | Previous Version | Graphics & Text | Print | Product List | Glossary On
Versions: 1 2 3 4 5 6 7 8 9 10 11 12 13 14 15 16 17 18 19 20 21 22 23 24 25 26 27 28 29 30 31 32 33 34 35 36 37 38 39 40 41 42 43 44 45 46 47 48 49 50
000
ASUS43 KLSX 280210
RWRMO

WEATHER SUMMARY FOR MISSOURI
NATIONAL WEATHER SERVICE SPRINGFIELD MO
900 PM CDT FRI MAY 27 2016

NOTE: "FAIR" INDICATES FEW OR NO CLOUDS BELOW 12,000 FEET WITH NO
       SIGNIFICANT WEATHER AND/OR OBSTRUCTIONS TO VISIBILITY.
       CURRENT SKY AND/OR WEATHER CONDITIONS ARE NOT AVAILABLE FOR
       CHILLICOTHE AND FARMINGTON.

MOZ001>031-035>038-043-044-053-054-280300-
...NORTHERN AND WESTERN MISSOURI...

CITY           SKY/WX    TMP DP  RH WIND       PRES   REMARKS
KANSAS CTY INT CLOUDY    68  63  84 E3        29.74R
KANSAS C DTWN  CLOUDY    71  67  87 NW3       29.73R
LEE`S SUMMIT   CLOUDY    72  62  71 S9        29.74R
ST JOSEPH      CLOUDY    69  66  90 N5        29.70F
CHILLICOTHE      N/A     68  66  93 VRB3      29.75R
KIRKSVILLE     RAIN      65  64  97 E7        29.77R FOG

$$
MOZ066>068-077>081-088>096-101>105-280300-
...SOUTHWEST MISSOURI...

CITY           SKY/WX    TMP DP  RH WIND       PRES   REMARKS
SPRINGFIELD    MOCLDY    72  66  81 S10       29.75R
JOPLIN         CLOUDY    70  67  90 S6        29.74R
BRANSON        CLOUDY    68  64  88 S10       29.79R

$$
MOZ032>034-039>042-045>050-055>058-069>072-280300-
...CENTRAL MISSOURI...

CITY           SKY/WX    TMP DP  RH WIND       PRES   REMARKS
COLUMBIA       PTCLDY    68  66  93 SE8       29.76R
JEFFERSON CITY CLOUDY    69  68  96 SE8       29.75S
ROLLA          CLOUDY    68  65  90 SE10G18   29.78S
SEDALIA        CLOUDY    73  68  84 S6        29.76R
WHITEMAN AFB   MOCLDY    71  71 100 SW7       29.73R
WARRENSBURG    CLOUDY    70  64  83 S6        29.73S

$$
MOZ051-052-059>065-280300-
...EAST CENTRAL MISSOURI...

CITY           SKY/WX    TMP DP  RH WIND       PRES   REMARKS
ST LOUIS INTL  CLOUDY    72  66  81 SE12      29.82R
SPIRIT OF STL  CLOUDY    70  66  87 VRB7      29.80R
ST CHARLES     CLOUDY    71  68  90 S10       29.81R

$$
MOZ072>076-082>087-097>100-106>115-280300-
...SOUTH CENTRAL AND SOUTHEAST MISSOURI...

CITY           SKY/WX    TMP DP  RH WIND       PRES   REMARKS
CAPE GIRARDEAU CLOUDY    72  68  87 SE7       29.84F
FARMINGTON     CLOUDY    69  67  93 SE9       29.84F
POPLAR BLUFF   MOCLDY    74  67  78 S21G30    29.83R
WEST PLAINS    CLOUDY    70  66  87 S12G21    29.83S

$$



USA.gov is the U.S. government's official web portal to all federal, state and local government web resources and services.